Content
SEND FEEDBACK

Daily
Averages
Monthly
Summary
Canada

MONCTON, NEW BRUNSWICK


Home > North America > Canada > New Brunswick
Elevation: 232 feet     Latitude: 46 07N     Longitude: 064 41W

WEATHER
 
SELECT A DAY
Number of Records: 202,968;   Date Range: 1/1/95 - 7/28/14
 
SHARE

PRINT THIS DATA

[ ← Previous Day ]
WEATHER ALMANAC - NOVEMBER 21, 2013
[ Next Day → ]
[ °C ]   °F
Weather ElementAverageHighLow
Temperature31.5 °F44.6 °F (3:00 pm)21 °F (8:00 am)
Dewpoint9.2 °F13 °F (8:00 pm)6.8 °F (3:00 am)
Humidity39.5 %58 % (7:00 am)13 % (2:00 pm)
Barometer30.36 in30.45 in (2:00 am)30.28 in (11:00 pm)
Wind Speed12.5 mph17.3 mph (11:00 am)
Wind Gust24.2 mph (5:00 pm)
Weather ElementAverage
Visibility15 mi
Wind DirectionW (271.4 °)

Weather ElementTotal
Precipitation---
Heating Degree Days32.2 (Base 65)
Averaged from 29 records on November 21, 2013
WEATHER CONDITIONS BREAKOUT
WIND DIRECTION BREAKOUT
WEATHER BY HOUR - NOVEMBER 21, 2013
[ °C ]   °F
Local TimeTemperatureDewpointHumidityBarometerVisibilityWind DirectionWind SpeedGust SpeedPrecipitationEventsConditions
1:00 AM23.0 °F8.6 °F54 %30.43 in15.0 miWNW (300°)13.8 mphClear
2:00 AM23.0 °F8.0 °F38 %30.45 in15.0 miWNW (300°)13.8 mph
2:00 AM23.0 °F8.6 °F54 %30.45 in15.0 miWNW (290°)12.7 mphClear
3:00 AM23.0 °F6.8 °F50 %30.45 in15.0 miWNW (300°)16.1 mphClear
4:00 AM21.2 °F6.8 °F54 %30.44 in15.0 miWest (270°)11.5 mphClear
5:00 AM21.2 °F6.8 °F54 %30.43 in15.0 miWest (280°)11.5 mphClear
6:00 AM23.0 °F6.8 °F50 %30.43 in15.0 miWNW (290°)11.5 mphClear
7:00 AM21.2 °F8.6 °F58 %30.42 in15.0 miWest (260°)11.5 mphClear
8:00 AM21.0 °F9.0 °F47 %30.43 in15.0 miWest (260°)15.0 mph
8:00 AM21.2 °F8.6 °F58 %30.43 in15.0 miWest (260°)15.0 mphPartly Cloudy
9:00 AM24.8 °F8.6 °F50 %30.42 in15.0 miWest (270°)11.5 mphPartly Cloudy
10:00 AM30.2 °F6.8 °F37 %30.42 in15.0 miWest (280°)13.8 mphClear
11:00 AM37.4 °F6.8 °F28 %30.39 in15.0 miWNW (290°)17.3 mphClear
12:00 PM39.2 °F10.4 °F31 %30.36 in15.0 miWest (280°)12.7 mphPartly Cloudy
1:00 PM41.0 °F6.8 °F24 %30.33 in15.0 miWest (280°)17.3 mphPartly Cloudy
2:00 PM43.0 °F10.0 °F13 %30.31 in15.0 miWest (280°)16.1 mphScattered Clouds
2:00 PM42.8 °F10.4 °F27 %30.31 in15.0 miWest (280°)13.8 mph23.0 mphPartly Cloudy
3:00 PM44.6 °F10.4 °F25 %30.30 in15.0 miWest (280°)16.1 mphPartly Cloudy
4:00 PM44.6 °F10.4 °F25 %30.30 in15.0 miWest (270°)11.5 mph18.4 mphPartly Cloudy
5:00 PM42.8 °F10.4 °F27 %30.30 in15.0 miWNW (290°)8.1 mph24.2 mphPartly Cloudy
6:00 PM37.4 °F10.4 °F33 %30.30 in15.0 miWest (270°)8.1 mphPartly Cloudy
6:37 PM35.6 °F8.6 °F33 %30.31 in15.0 miWest (260°)6.9 mphPartly Cloudy
7:00 PM37.4 °F8.6 °F30 %30.31 in15.0 miWest (260°)11.5 mphPartly Cloudy
7:15 PM35.6 °F8.6 °F33 %30.31 in15.0 miWSW (250°)9.2 mphPartly Cloudy
8:00 PM33.0 °F13.0 °F29 %30.32 in15.0 miWSW (240°)13.8 mphClear
8:00 PM33.8 °F12.2 °F41 %30.32 in15.0 miSW (230°)12.7 mphPartly Cloudy
9:00 PM32.0 °F12.2 °F44 %30.32 in15.0 miWSW (250°)11.5 mphPartly Cloudy
10:00 PM30.2 °F12.2 °F47 %30.30 in15.0 miWest (260°)9.2 mphClear
11:00 PM28.4 °F12.2 °F51 %30.28 in15.0 miWSW (240°)10.4 mphPartly Cloudy
Hourly data recorded from CYQM, located miles away from Moncton, New Brunswick







STORIES FROM OUR PARTNERS